This demonstration page uses our WeatherBlox Daily Observations layout. Learn more.

36.19886, -115.1175

Hourly Observations for July 29, 2018

Temp ( °F °C ) Dew Point ( °F °C ) Humidity (%) Winds ( mph kmh ) Pressure ( in mb ) Visibility ( mi km ) Precip ( " mm )
12:53 am 00:53 Clear 97 36.1 53 11.7 23 23 S 8 13 29.85 1011 10 16.09344 0 0
1:53 am 01:53 Clear 95 35 57 13.9 28 28 S 9 15 29.85 1011 10 16.09344 0 0
2:53 am 02:53 Clear 93 33.9 60 15.6 33 33 SE 10 17 29.85 1011 10 16.09344 0 0
3:53 am 03:53 Clear 91 32.8 61 16.1 37 37 SE 7 11 29.85 1011 10 16.09344 0 0
4:53 am 04:53 Clear 89 31.7 61 16.1 39 39 SE 13 20 29.88 1012 10 16.09344 0 0
5:53 am 05:53 Sunny 88 31.1 62 16.7 42 42 SE 10 17 29.88 1012 10 16.09344 0 0
6:53 am 06:53 Sunny 88 31.1 62 16.7 42 42 ESE 9 15 29.91 1013 10 16.09344 0 0
7:53 am 07:53 Sunny 91 32.8 62 16.7 38 38 ESE 12 19 29.91 1013 10 16.09344 0 0
8:53 am 08:53 Sunny 93 33.9 62 16.7 36 36 ESE 15 24 29.94 1014 10 16.09344 0 0
9:53 am 09:53 Sunny 95 35 61 16.1 32 32 SE 8 13 29.94 1014 10 16.09344 0 0
10:53 am 10:53 Sunny 98 36.7 61 16.1 29 29 E 10 17 29.91 1013 10 16.09344 0 0
11:53 am 11:53 Sunny 100 37.8 61 16.1 28 28 SE 9 15 29.91 1013 10 16.09344 0 0
12:53 pm 12:53 Sunny 102 38.9 61 16.1 26 26 SSE 9 15 29.88 1012 10 16.09344 0 0
1:53 pm 13:53 Sunny 105 40.6 61 16.1 24 24 ESE 13 20 29.85 1011 10 16.09344 0 0
2:53 pm 14:53 Sunny 104 40 59 15 23 23 ESE 10 17 29.83 1010 10 16.09344 0 0
3:34 pm 15:34 Sunny with Nearby Thunderstorms 103 39.4 58 14.4 23 23 SE 8 13 29.71 1006 10 16.09344 0 0
3:53 pm 15:53 Mostly Sunny 96 35.6 58 14.4 28 28 WSW 22 35 29.85 1011 10 16.09344 0 0
4:00 pm 16:00 Mostly Sunny 95 35 58 14.4 29 29 W 16 26 29.74 1007 10 16.09344 0 0
4:53 pm 16:53 Sunny 95 35 59 15 30 30 W 16 26 29.83 1010 10 16.09344 0 0
5:53 pm 17:53 Sunny 95 35 60 15.6 31 31 SSE 8 13 29.83 1010 10 16.09344 0 0
6:53 pm 18:53 Sunny 99 37.2 53 11.7 21 21 S 12 19 29.83 1010 10 16.09344 0 0
7:53 pm 19:53 Clear 98 36.7 56 13.3 24 24 SSW 12 19 29.83 1010 10 16.09344 0 0
8:53 pm 20:53 Clear 96 35.6 59 15 29 29 S 7 11 29.85 1011 10 16.09344 0 0
9:53 pm 21:53 Clear 95 35 59 15 30 30 SSE 8 13 29.85 1011 10 16.09344 0 0
10:53 pm 22:53 Clear 94 34.4 58 14.4 30 30 SW 5 7 29.85 1011 10 16.09344 0 0
11:53 pm 23:53 Clear 92 33.3 58 14.4 32 32 Calm 29.85 1011 10 16.09344 0 0

Powered by AerisWeather